Regional Weather Roundup
Issued by NWS Goodland, KS

Home | Current Version | Previous Version | Graphics & Text | Print | Product List | Glossary On
Versions: 1 2 3 4 5 6 7 8 9 10 11 12 13 14 15 16 17 18 19 20 21 22 23 24 25 26 27 28 29 30 31 32 33 34 35 36 37 38 39 40 41 42 43 44 45 46 47 48 49 50
000
ASUS43 KGLD 100759
RWRGLD

GOODLAND FORECAST AREA HOURLY WEATHER ROUNDUP
NATIONAL WEATHER SERVICE GOODLAND KS
100 AM MST SAT DEC 10 2016

...OFFICIAL OBSERVATIONS...

CITY           SKY/WX    TMP DP  RH WIND       PRES   REMARKS
GOODLAND KS    CLOUDY    23  19  85 S7        30.13F
HILL CITY KS   CLOUDY    21  13  71 SE5       30.30F
IMPERIAL NEB   CLOUDY    18  13  80 SE6       30.17F
MCCOOK NEB     CLOUDY    17  12  80 E6        30.23F
AKRON CO       CLOUDY    23  17  78 S14       30.04F WCI  11
BURLINGTON CO  CLOUDY    24  18  77 S10       30.10F WCI  14
LIMON CO       CLOUDY    13  11  92 CALM      30.07F
$$

...UNOFFICIAL OBSERVATIONS...

CITY           SKY/WX    TMP DP  RH WIND       PRES   REMARKS
COLBY KS       CLEAR     21  19  93 SE6       30.19F
LENORA KS        N/A     20  32 100 MISG        N/A
NORTON KS      CLEAR     19  10  68 SE8       30.27F
SHARON SPRINGS   N/A     23  19  85 S14         N/A  WCI  11
TRENTON NEB      N/A     17  32 100 SE6         N/A
KIT CARSON CO    N/A     22  17  82 CALM        N/A
YUMA CO        FAIR      14  12  92 N5        30.09S
$$



USA.gov is the U.S. government's official web portal to all federal, state and local government web resources and services.